Weather History for EGNS - November, 2012

Change the Weather History Date:

Friday, November 23, 2012

  Actual Average Record
Temperature  
Mean Temperature 45 °F -  
Max Temperature 48 °F 47 °F 55 °F (2011)
Min Temperature 42 °F 40 °F 32 °F (2007)
Degree Days  
Heating Degree Days 20    
Moisture  
Dew Point 37 °F    
Average Humidity 70    
Maximum Humidity 81    
Minimum Humidity 56    
Precipitation  
Precipitation 0.02 in - - ()
Sea Level Pressure  
Sea Level Pressure 29.73 in    
Wind  
Wind Speed 14 mph ()    
Max Wind Speed 22 mph    
Max Gust Speed 28 mph    
Visibility 7.0 miles    
Events Rain    
Averages and records for this station are not official NWS values.
T = Trace of Precipitation, MM = Missing Value Source: Averaged Metar Reports

Daily Weather History Graph

Daily Weather History Graph

Search for Another Location

Airport or City:

Trip Planner

Search our weather history database for the weather conditions in past years. The results will help you decide how hot, cold, wet, or windy it might be!

Date:

Astronomy

Nov. 23, 2012 Rise Set
Actual Time 8:01 AM GMT 4:07 PM GMT
Civil Twilight 7:20 AM GMT 4:48 PM GMT
Nautical Twilight 6:36 AM GMT 5:33 PM GMT
Astronomical Twilight 5:53 AM GMT 6:15 PM GMT
Moon 1:50 PM GMT (11/23) 2:27 AM GMT (11/23)
Length of Visible Light 9h 28m
Length of Day
8h 05m
Waxing Gibbous, 78% of the Moon is Illuminated
Nov 23
Waxing Gibbous
Nov 28
Full
Dec 6
Last Quarter
Dec 13
New
Dec 20
First Quarter

Hourly Weather History & Observations

Time (GMT) Temp. Windchill Dew Point Humidity Pressure Visibility Wind Dir Wind Speed Gust Speed Precip Events Conditions
12:50 AM 46.4 °F 39.0 °F 39.2 °F 76% 29.47 in 6.2 mi WSW 19.6 mph - N/A   Mostly Cloudy
1:50 AM 46.4 °F 39.5 °F 39.2 °F 76% 29.50 in 6.2 mi West 17.3 mph - N/A   Scattered Clouds
2:50 AM 46.4 °F 38.7 °F 37.4 °F 71% 29.53 in 6.2 mi West 20.7 mph - N/A   Scattered Clouds
3:50 AM 46.4 °F 39.8 °F 39.2 °F 76% 29.56 in 6.2 mi West 16.1 mph - N/A   Scattered Clouds
4:50 AM 46.4 °F 40.4 °F 39.2 °F 76% 29.56 in 6.2 mi West 13.8 mph - N/A   Partly Cloudy
5:20 AM 46.4 °F 40.7 °F 39.2 °F 76% 29.59 in 6.2 mi West 12.7 mph - N/A   Partly Cloudy
5:50 AM 47 °F - 38 °F 60% 29.62 in 16 mi WSW 16.1 mph - -   Scattered Clouds
5:50 AM 46.4 °F 39.8 °F 37.4 °F 71% 29.59 in 6.2 mi West 16.1 mph - N/A   Partly Cloudy
6:50 AM 46.4 °F 39.5 °F 39.2 °F 76% 29.62 in 6.2 mi WSW 17.3 mph - N/A   Partly Cloudy
7:50 AM 46.4 °F 39.5 °F 37.4 °F 71% 29.65 in 6.2 mi WSW 17.3 mph - N/A   Partly Cloudy
8:20 AM 48.2 °F - 39.2 °F 71% 29.65 in 6.2 mi WSW 17.3 mph - N/A   Partly Cloudy
8:50 AM 47 °F - 38 °F 60% 29.68 in 16 mi WSW 15.0 mph - -   Scattered Clouds
8:50 AM 48.2 °F - 37.4 °F 66% 29.68 in 6.2 mi WSW 15.0 mph - N/A   Partly Cloudy
9:20 AM 48.2 °F - 37.4 °F 66% 29.68 in 6.2 mi SW 16.1 mph - N/A   Scattered Clouds
9:50 AM 46.4 °F 39.8 °F 35.6 °F 66% 29.68 in 6.2 mi WSW 16.1 mph 27.6 mph N/A Rain Light Rain Showers
10:20 AM 46.4 °F 40.7 °F 41.0 °F 81% 29.68 in 6.2 mi WSW 12.7 mph - N/A   Scattered Clouds
10:50 AM 46.4 °F 39.8 °F 39.2 °F 76% 29.71 in 6.2 mi WSW 16.1 mph - N/A   Scattered Clouds
11:20 AM 46.4 °F 40.4 °F 37.4 °F 71% 29.71 in 6.2 mi WSW 13.8 mph - N/A   Partly Cloudy
11:50 AM 47 °F - 40 °F 67% 29.72 in 9 mi WSW 12.7 mph - - Rain Light Rain Showers
11:50 AM 46.4 °F 40.7 °F 39.2 °F 76% 29.71 in 6.2 mi WSW 12.7 mph - N/A Rain Light Rain Showers
12:20 PM 48.2 °F - 39.2 °F 71% 29.71 in 6.2 mi WSW 15.0 mph - N/A Rain Light Rain Showers
12:50 PM 48.2 °F - 39.2 °F 71% 29.71 in 6.2 mi WSW 16.1 mph - N/A   Scattered Clouds
1:20 PM 48.2 °F - 39.2 °F 71% 29.71 in 6.2 mi WSW 17.3 mph - N/A   Scattered Clouds
1:50 PM 48.2 °F - 39.2 °F 71% 29.71 in 6.2 mi WSW 15.0 mph - N/A   Scattered Clouds
2:20 PM 48.2 °F - 39.2 °F 71% 29.71 in 6.2 mi WSW 15.0 mph - N/A   Scattered Clouds
2:50 PM 48 °F - 38 °F 59% 29.74 in 19 mi WSW 17.3 mph - -   Partly Cloudy
2:50 PM 48.2 °F - 37.4 °F 66% 29.71 in 6.2 mi WSW 17.3 mph - N/A   Scattered Clouds
3:20 PM 48.2 °F - 37.4 °F 66% 29.74 in 6.2 mi WSW 18.4 mph - N/A   Scattered Clouds
3:50 PM 48.2 °F - 37.4 °F 66% 29.74 in 6.2 mi WSW 19.6 mph - N/A   Scattered Clouds
4:20 PM 46.4 °F 38.5 °F 37.4 °F 71% 29.74 in 6.2 mi WSW 21.9 mph - N/A   Scattered Clouds
4:50 PM 46.4 °F 39.2 °F 35.6 °F 66% 29.77 in 6.2 mi WSW 18.4 mph - N/A   Scattered Clouds
5:20 PM 46.4 °F 39.5 °F 35.6 °F 66% 29.77 in 6.2 mi West 17.3 mph - N/A   Partly Cloudy
5:50 PM 46 °F - 35 °F 56% 29.80 in 25 mi West 13.8 mph - -   Partly Cloudy
5:50 PM 46.4 °F 40.4 °F 35.6 °F 66% 29.77 in 6.2 mi West 13.8 mph - N/A   Partly Cloudy
6:20 PM 44.6 °F 37.4 °F 35.6 °F 71% 29.80 in 6.2 mi West 16.1 mph - N/A   Partly Cloudy
6:50 PM 46.4 °F 40.4 °F 37.4 °F 71% 29.80 in 6.2 mi West 13.8 mph - N/A   Partly Cloudy
7:20 PM 44.6 °F 38.1 °F 35.6 °F 71% 29.83 in 6.2 mi West 13.8 mph - N/A   Partly Cloudy
7:50 PM 44.6 °F 38.8 °F 35.6 °F 71% 29.83 in 6.2 mi West 11.5 mph - N/A   Partly Cloudy
8:20 PM 44.6 °F 38.4 °F 37.4 °F 76% 29.86 in 6.2 mi West 12.7 mph - N/A   Partly Cloudy
8:50 PM 44 °F - 37 °F 68% 29.87 in 25 mi West 11.5 mph - -   Scattered Clouds
8:50 PM 44.6 °F 38.8 °F 37.4 °F 76% 29.86 in 6.2 mi West 11.5 mph - N/A   Partly Cloudy
9:20 PM 44.6 °F 39.7 °F 35.6 °F 71% 29.86 in 6.2 mi West 9.2 mph - N/A   Partly Cloudy
9:50 PM 42.8 °F 38.0 °F 35.6 °F 76% 29.89 in 6.2 mi West 8.1 mph - N/A   Partly Cloudy
10:20 PM 44.6 °F 40.2 °F 35.6 °F 71% 29.89 in 6.2 mi West 8.1 mph - N/A   Partly Cloudy
10:50 PM 42.8 °F 39.3 °F 35.6 °F 76% 29.89 in 6.2 mi West 5.8 mph - N/A   Partly Cloudy
11:50 PM 42 °F - 35 °F 66% 29.92 in 25 mi West 5.8 mph - -   Scattered Clouds
11:50 PM 42.8 °F 39.3 °F 33.8 °F 70% 29.92 in 6.2 mi West 5.8 mph - N/A   Partly Cloudy